Other Public Products
Issued by NWS Grand Forks, ND

Home | Current Version | Previous Version | Graphics & Text | Print | Product List | Glossary On
Versions: 1 2 3 4 5 6 7 8 9 10 11 12 13 14 15 16 17 18 19 20 21 22 23 24 25 26 27 28 29 30 31 32 33 34 35 36 37 38 39 40 41 42 43 44 45 46 47 48 49 50
000
FPUS83 KFGF 262210
OPUFGF
PRAIRIE TO PINES WEATHER ROUNDUP
NATIONAL WEATHER SERVICE EASTERN NORTH DAKOTA/GRAND FORKS ND
500 PM CDT SUN APR 26 2015

 **SATELLITE DATA USED TO AUGMENT SKY COVER AT AUTOMATED STATIONS**
 *****  WEATHER ACROSS EASTERN NORTH DAKOTA  *****

CITY           SKY/WX    TMP DP  RH WIND       PRES   REMARKS
GRAND FORKS    MOSUNNY   68  25  19 E5        30.10S
GRAND FORKS AF SUNNY     67  26  21 SW8       30.10S
GRAND CITY NWS   N/A     66 N/A N/A S3          N/A
BUXTON         NOT AVBL
DEVILS LAKE    PTSUNNY   61  45  55 NW7       30.10S
FARGO          SUNNY     67  25  20 CALM      30.09F
WAHPETON ARPT  CLEAR     64  19  17 E5        30.10F
$$

 *****  WEATHER ACROSS CENTRAL AND WESTERN NORTH DAKOTA  *****

CITY           SKY/WX    TMP DP  RH WIND       PRES   REMARKS
JAMESTOWN      MOSUNNY   66  32  28 SE5       30.07F
BISMARCK       CLOUDY    59  43  55 NE3       30.09S
MINOT          CLOUDY    48  45  89 SE5       30.12S
MINOT AFB      CLOUDY    51  50  95 S10       30.10S
GARRISON         N/A     48  44  86 N6        30.12S
WILLISTON      MOSUNNY   56  35  45 VRB3      30.13S
DICKINSON      LGT RAIN  44  41  89 NE9       30.10R
HETTINGER      CLOUDY    49  46  90 N12       30.08F FOG
$$

 *****  OTHER OBSERVATIONS NORTHEAST NORTH DAKOTA  *****

CITY           SKY/WX    TMP DP  RH WIND       PRES   REMARKS
WALHALLA       FAIR      66  34  30 S8        30.09S
LANGDON        FAIR      64  45  48 W16       30.11S
CAVALIER       FAIR      66  32  28 S9        30.09S
GRAFTON        FAIR      68  28  22 SE6G13    30.10F
CANDO          MOCLDY    57  48  72 W10       30.12F
FORT TOTTEN      N/A     58  45  62 N7        29.95
ROLLA          CLOUDY    50  50 100 SW12      30.13R
RUGBY            N/A     50  50 100 W7        30.13
 ***** THE ABOVE OBSERVATIONS ARE NON NWS ARE NOT QUALITY
        CONTROLLED AND MAY MIS-REPORT RAIN FOR SNOW...
$$

 *****  OTHER OBSERVATIONS SOUTHEAST NORTH DAKOTA *****

CITY           SKY/WX    TMP DP  RH WIND       PRES   REMARKS
COOPERSTOWN    NOT AVBL
VALLEY CITY    FAIR      64  30  27 SE8       30.09S
OAKES            N/A     64  34  32 E9        30.08S
GWINNER        CLEAR     66  32  28 E12       30.09F
BUFFALO        NOT AVBL
WYNDMERE       NOT AVBL
 ***** THE ABOVE OBSERVATIONS ARE NON NWS ARE NOT QUALITY
       CONTROLLED AND MAY MIS-REPORT RAIN FOR SNOW...
$$

  *****  WEATHER ACROSS NORTHERN MINNESOTA  *****

CITY           SKY/WX    TMP DP  RH WIND       PRES   REMARKS
FLAG ISLAND    MOSUNNY   54  27  35 SE7       30.15S
WARROAD        SUNNY     54  30  40 NE12      30.15S
ROSEAU         SUNNY     66  25  20 S5        30.12S
HALLOCK        SUNNY     68  18  14 S9G16     30.10S
THF RVR FALLS  SUNNY     64  25  22 CALM      30.12F
HALSTAD        NOT AVBL
FOSSTON        SUNNY     70  19  14 NW5       30.12S
BAUDETTE       MOSUNNY   64  24  21 N9        30.14S
WASKISH        MOSUNNY   57  30  35 CALM      30.13F
CROOKSTON      SUNNY     66  27  22 S3        30.11F
$$
  *****  WEATHER ACROSS CENTRAL AND WEST MINNESOTA  *****

CITY           SKY/WX    TMP DP  RH WIND       PRES   REMARKS
BEMIDJI        MOSUNNY   61  22  22 SE6       30.12F
PARK RAPIDS    SUNNY     64  15  15 NE8       30.11F
WADENA         SUNNY     63  23  22 E7        30.11S
DETROIT LAKES  MOSUNNY   61  21  21 SE6       30.12F
MOORHEAD       SUNNY     64  25  22 E3        30.10F
FERGUS FALLS   SUNNY     63  14  15 E9        30.11S
ELBOW LAKE     FAIR      62  23  22 E5        30.11S
MORRIS MN      SUNNY     64  23  20 NE9       30.09S
STAPLES        SUNNY     61  12  15 CALM      30.11F
WHEATON        SUNNY     63  27  25 NE5       30.11S
$$
  *****  WEATHER ELSEWHERE ACROSS MINNESOTA  *****

CITY           SKY/WX    TMP DP  RH WIND       PRES   REMARKS
DULUTH         SUNNY     53  13  20 SE8       30.13F
INTRNTL FALLS  SUNNY     60   7  12 NW6       30.15F
ELY            SUNNY     57  14  18 NE7       30.13S
CLOQUET        SUNNY     55   3  12 SE8       30.13S
BRAINERD       SUNNY     59  10  14 NE5       30.12F
HIBBING        SUNNY     62  13  14 NW7       30.12F
ALEXANDRIA     SUNNY     62  20  19 NE7       30.11F
SAINT CLOUD    SUNNY     60  19  20 E7        30.10S
MINNEAPOLIS    MOSUNNY   63  24  22 N12       30.08F
$$

  *****  WEATHER ACROSS SOUTH DAKOTA  *****

CITY           SKY/WX    TMP DP  RH WIND       PRES   REMARKS
SIOUX FALLS    MOSUNNY   66  31  27 NE10G16   30.03S
BROOKINGS      SUNNY     63  32  31 E6        30.07S
WATERTOWN      SUNNY     63  29  27 VRB5      30.07F
HURON          SUNNY     67  31  26 E5        30.04F
SISSETON         N/A     66  26  22 SE9       30.08F
ABERDEEN       SUNNY     68  32  26 CALM      30.06F
MITCHELL       SUNNY     65  34  31 E5        30.05S
PIERRE         CLOUDY    62  38  40 E9        30.03S
MOBRIDGE       MOSUNNY   68  34  28 S13       30.02S
RAPID CITY     LGT RAIN  51  46  83 CALM      30.03R
$$

  *****  SOME WEATHER IN NEARBY STATES *****

CITY           SKY/WX    TMP DP  RH WIND       PRES   REMARKS
GLASGOW MT     CLOUDY    43  33  68 NW12      30.18R
GREAT FALLS MT CLOUDY    43  27  53 CALM      30.18S
CHEYENNE WY    LGT RAIN  40  38  93 E13       29.93S
SCOTTSBLUFF NE CLOUDY    46  32  58 E14       29.98R
OMAHA NE       MOSUNNY   63  34  33 E12       30.00F
DES MOINES IA  SUNNY     63  27  25 E10G24    30.01F
DAVENPORT IA   SUNNY     59  32  36 NE12G18   30.01F
CHICAGO IL     MOSUNNY   54  25  32 NE13G22   30.00S
EAU CLAIRE WI  SUNNY     62  21  20 N10G20    30.05F
LA CROSSE WI   SUNNY     65  23  20 N7        30.03F
$$

  *****  SOME NATIONAL WEATHER *****

CITY           SKY/WX    TMP DP  RH WIND       PRES   REMARKS
LA GUARDIA NY  PTSUNNY   59  28  30 NW7       29.65S
RALEIGH NC     CLOUDY    54  46  74 NE8       29.73S
ATLANTA GA     PTSUNNY   80  53  39 NW24G30   29.66F
NEW ORLEANS LA CLOUDY    82  70  66 N9        29.70F
OKLAHOMA CITY  CLOUDY    73  58  59 E9G20     29.70S
ALBUQUERQUE NM LGT RAIN  48  42  80 NW5       29.76S
SALT LAKE CITY CLOUDY    48  32  53 W14       30.03R
LOS ANGELES CA MOSUNNY   70  45  40 W22       29.94F
BOISE ID       SUNNY     60  22  23 NW22G29   30.11S
SEATTLE WA     PTSUNNY   59  41  51 SW9       30.23F
$$

*** WEATHER ACROSS MANITOBA...SASKATCHEWAN AND ONTARIO ***
                ***ONTARIO***

CITY           SKY/WX    TMP DP  RH WIND       PRES   REMARKS
GERALDTON      MOSUNNY   52  27  37 N12G21    30.14S
THUNDER BAY    MOSUNNY   57  27  30 E8        30.13S
SIOUX LOOKOUT  MOSUNNY   57  28  33 VRB3      30.18S
TORONTO        PTSUNNY   52  32  46 NW18G24   29.82R
BIG TROUT LK   SUNNY     48  27  43 E7        30.30R
PICKLE LAKE    MOSUNNY   52  25  35 NE9       30.21S
DRYDEN         SUNNY     57  19  23 E9        30.17F
KENORA         PTSUNNY   59  14  17 E6        30.16F
$$
                *** MANITOBA***

CITY           SKY/WX    TMP DP  RH WIND       PRES   REMARKS
BRANDON        CLOUDY    54  45  71 S10       30.11S
DAUPHIN        MOSUNNY   57  43  58 SW14      30.07S
ISLAND LAKE      N/A     55  16  21 SE8       30.20S
PILOT MOUND      N/A     55  46  71 SW12        N/A
THE PAS        LGT RAIN  41  41 100 SE6       30.01R FOG
THOMPSON       CLOUDY    50  21  32 E9G17     30.17F
WINNIPEG       MOSUNNY   68  28  22 S9G17     30.10S
LYNN LAKE      LGT SNOW  34  34 100 E12G17    30.20F
CHURCHILL      CLOUDY    25  21  86 NE12      30.44R WCI  14
GILLAM         CLOUDY    48  30  49 NE17      30.28S
$$
                ***SASKATCHEWAN***

CITY           SKY/WX    TMP DP  RH WIND       PRES   REMARKS
ESTEVAN        MOSUNNY   52  36  54 NW8       30.12S
KINDERSLEY     MOSUNNY   50  28  43 NW12      30.14R
LLOYDMINSTER   MOSUNNY   52   9  17 W7        30.12S
PRINCE ALBERT  CLOUDY    37  32  81 N9        30.10R
REGINA         CLOUDY    41  34  75 NW14      30.15R
YORKTON        CLOUDY    45  36  70 W13       30.10R


USA.gov is the U.S. government's official web portal to all federal, state and local government web resources and services.